Location: Unspecified
(41.5516°N, 88.1098°W)
Time: 14:27:35
(UTC-05:00)

Resurs 1-4 Rocket - Visible Passes

Search period start: 26 April 2015 00:00
Search period end: 06 May 2015 00:00
Orbit: 799 x 815 km, 98.4° (Epoch: 25 April)

Date Brightness Start Highest point End Pass type
(mag) Time Alt. Az. Time Alt. Az. Time Alt. Az.
26 Apr 4.8 03:00:14 10° ENE 03:01:31 11° E 03:03:11 10° ESE visible
26 Apr 2.1 04:36:55 10° NNE 04:42:13 87° WNW 04:47:31 10° SSW visible
27 Apr 2.7 04:12:31 10° NNE 04:17:43 57° E 04:22:55 10° S visible
28 Apr 3.5 03:48:22 10° NNE 03:53:06 34° E 03:57:54 10° SSE visible
29 Apr 4.3 03:24:35 10° NE 03:28:23 20° E 03:32:20 10° SE visible
29 Apr 2.4 05:03:29 10° N 05:08:35 50° WNW 05:13:40 10° SW visible
30 Apr 4.7 03:01:47 10° ENE 03:03:32 12° E 03:05:36 10° ESE visible
30 Apr 2.1 04:38:52 10° NNE 04:44:10 83° WNW 04:49:28 10° SSW visible
01 May 2.6 04:14:27 10° NNE 04:19:40 60° E 04:24:54 10° S visible
02 May 3.5 03:50:16 10° NNE 03:55:04 36° E 03:59:56 10° SSE visible
03 May 4.2 03:26:25 10° NE 03:30:22 22° E 03:34:27 10° SE visible
03 May 2.5 05:05:28 10° N 05:10:32 48° WNW 05:15:34 10° SW visible
04 May 4.7 03:03:27 10° ENE 03:05:31 13° E 03:07:56 10° ESE visible
04 May 2.1 04:40:49 10° N 04:46:07 79° WNW 04:51:25 10° SSW visible
05 May 2.5 04:16:22 10° NNE 04:21:37 63° E 04:26:53 10° S visible
